| time (UTC) | temp C | wind direction | speed KPH | gust KPH | rain 1hr cm | rain 24hr cm | rain mn cm | humidity % | barometer mb |
| 20260505200720 | 26 | 183 | 11.3 | 16.1 | 0.00 | 0.00 | 0.00 | 46 | 1014.2 |
| 20260505200216 | 27 | 137 | 6.4 | 17.7 | 0.00 | 0.00 | 0.00 | 46 | 1014.5 |
| 20260505195712 | 26 | 146 | 6.4 | 12.9 | 0.00 | 0.00 | 0.00 | 46 | 1014.4 |
| 20260505195209 | 26 | 174 | 8.0 | 17.7 | 0.00 | 0.00 | 0.00 | 47 | 1014.6 |
| 20260505194707 | 26 | 184 | 4.8 | 9.7 | 0.00 | 0.00 | 0.00 | 46 | 1014.6 |
| 20260505194203 | 26 | 178 | 3.2 | 16.1 | 0.00 | 0.00 | 0.00 | 46 | 1014.9 |
| 20260505193659 | 26 | 229 | 6.4 | 11.3 | 0.00 | 0.00 | 0.00 | 46 | 1014.7 |
| 20260505193156 | 27 | 196 | 6.4 | 9.7 | 0.00 | 0.00 | 0.00 | 45 | 1014.8 |
| 20260505192655 | 26 | 185 | 9.7 | 17.7 | 0.00 | 0.00 | 0.00 | 45 | 1014.9 |
| 20260505192152 | 26 | 183 | 8.0 | 12.9 | 0.00 | 0.00 | 0.00 | 46 | 1015.1 |
| 20260505191650 | 26 | 111 | 3.2 | 12.9 | 0.00 | 0.00 | 0.00 | 45 | 1015.1 |
| 20260505191148 | 26 | 224 | 6.4 | 12.9 | 0.00 | 0.00 | 0.00 | 45 | 1015.4 |
| 20260505190644 | 26 | 152 | 4.8 | 16.1 | 0.00 | 0.00 | 0.00 | 45 | 1015.4 |
| 20260505190144 | 26 | 214 | 9.7 | 14.5 | 0.00 | 0.00 | 0.00 | 45 | 1015.4 |
| 20260505185641 | 26 | 192 | 9.7 | 17.7 | 0.00 | 0.00 | 0.00 | 45 | 1015.4 |
| 20260505185137 | 26 | 144 | 6.4 | 6.4 | 0.00 | 0.00 | 0.00 | 46 | 1015.4 |
| 20260505184634 | 26 | 84 | 6.4 | 17.7 | 0.00 | 0.00 | 0.00 | 46 | 1015.3 |
| 20260505184131 | 26 | 128 | 9.7 | 12.9 | 0.00 | 0.00 | 0.00 | 46 | 1015.4 |
| 20260505183627 | 26 | 181 | 4.8 | 14.5 | 0.00 | 0.00 | 0.00 | 46 | 1015.8 |
| 20260505183125 | 26 | 238 | 8.0 | 17.7 | 0.00 | 0.00 | 0.00 | 46 | 1015.9 |
| 20260505182621 | 26 | 234 | 16.1 | 17.7 | 0.00 | 0.00 | 0.00 | 45 | 1015.8 |
| 20260505182118 | 26 | 198 | 8.0 | 14.5 | 0.00 | 0.00 | 0.00 | 46 | 1015.8 |
| 20260505181615 | 26 | 228 | 6.4 | 11.3 | 0.00 | 0.00 | 0.00 | 46 | 1015.8 |
| 20260505181112 | 26 | 184 | 9.7 | 14.5 | 0.00 | 0.00 | 0.00 | 46 | 1016.1 |
| 20260505180608 | 26 | 158 | 6.4 | 17.7 | 0.00 | 0.00 | 0.00 | 47 | 1016.1 |
| 20260505180106 | 25 | 158 | 9.7 | 16.1 | 0.00 | 0.00 | 0.00 | 48 | 1016.2 |
| 20260505175601 | 26 | 197 | 12.9 | 16.1 | 0.00 | 0.00 | 0.00 | 46 | 1016.1 |
| 20260505175058 | 26 | 187 | 6.4 | 12.9 | 0.00 | 0.00 | 0.00 | 47 | 1016.0 |
| 20260505174555 | 26 | 213 | 8.0 | 14.5 | 0.00 | 0.00 | 0.00 | 48 | 1016.2 |
| 20260505174051 | 26 | 236 | 14.5 | 22.5 | 0.00 | 0.00 | 0.00 | 48 | 1016.0 |
| 20260505173548 | 26 | 117 | 17.7 | 22.5 | 0.00 | 0.00 | 0.00 | 48 | 1015.9 |
| 20260505173044 | 26 | 160 | 9.7 | 14.5 | 0.00 | 0.00 | 0.00 | 49 | 1016.0 |
| 20260505172542 | 25 | 183 | 4.8 | 6.4 | 0.00 | 0.00 | 0.00 | 50 | 1016.0 |
| 20260505172038 | 26 | 211 | 9.7 | 24.1 | 0.00 | 0.00 | 0.00 | 50 | 1016.2 |
| 20260505171533 | 25 | 239 | 6.4 | 9.7 | 0.00 | 0.00 | 0.00 | 51 | 1016.3 |
| 20260505171031 | 25 | 191 | 6.4 | 14.5 | 0.00 | 0.00 | 0.00 | 52 | 1016.4 |
| 20260505170527 | 25 | 221 | 8.0 | 16.1 | 0.00 | 0.00 | 0.00 | 51 | 1016.1 |
| 20260505170024 | 25 | 235 | 11.3 | 16.1 | 0.00 | 0.00 | 0.00 | 50 | 1016.3 |
| 20260505165519 | 25 | 241 | 11.3 | 16.1 | 0.00 | 0.00 | 0.00 | 52 | 1016.4 |
| 20260505165015 | 25 | 173 | 14.5 | 22.5 | 0.00 | 0.00 | 0.00 | 52 | 1016.5 |
| 20260505164511 | 25 | 137 | 8.0 | 16.1 | 0.00 | 0.00 | 0.00 | 53 | 1016.5 |
| 20260505164009 | 25 | 215 | 8.0 | 11.3 | 0.00 | 0.00 | 0.00 | 53 | 1016.5 |
| 20260505163507 | 25 | 152 | 9.7 | 12.9 | 0.00 | 0.00 | 0.00 | 54 | 1016.4 |
| 20260505163003 | 25 | 136 | 11.3 | 16.1 | 0.00 | 0.00 | 0.00 | 54 | 1016.3 |
| 20260505162457 | 25 | 199 | 11.3 | 22.5 | 0.00 | 0.00 | 0.00 | 53 | 1016.5 |
| 20260505161954 | 24 | 160 | 12.9 | 24.1 | 0.00 | 0.00 | 0.00 | 54 | 1016.5 |
| 20260505161450 | 24 | 141 | 6.4 | 14.5 | 0.00 | 0.00 | 0.00 | 54 | 1016.5 |
| 20260505160948 | 23 | 201 | 4.8 | 12.9 | 0.00 | 0.00 | 0.00 | 55 | 1016.8 |
| 20260505160446 | 23 | 173 | 8.0 | 14.5 | 0.00 | 0.00 | 0.00 | 56 | 1017.0 |
| 20260505152922 | 23 | 193 | 6.4 | 6.4 | 0.00 | 0.00 | 0.00 | 61 | 1017.0 |
| 20260505152420 | 23 | 185 | 6.4 | 11.3 | 0.00 | 0.00 | 0.00 | 61 | 1017.1 |
| 20260505151919 | 23 | 190 | 6.4 | 12.9 | 0.00 | 0.00 | 0.00 | 61 | 1017.3 |
| 20260505151416 | 22 | 199 | 8.0 | 11.3 | 0.00 | 0.00 | 0.00 | 62 | 1017.1 |
| 20260505150914 | 23 | 203 | 9.7 | 20.9 | 0.00 | 0.00 | 0.00 | 61 | 1017.1 |
| 20260505150411 | 22 | 190 | 6.4 | 11.3 | 0.00 | 0.00 | 0.00 | 63 | 1017.2 |
| 20260505140340 | 20 | 171 | 6.4 | 17.7 | 0.00 | 0.00 | 0.00 | 68 | 1017.3 |
| 20260505130304 | 18 | 175 | 4.8 | 12.9 | 0.00 | 0.00 | 0.00 | 74 | 1017.2 |
| 20260505124754 | 18 | 199 | 8.0 | 9.7 | 0.00 | 0.00 | 0.00 | 77 | 1017.2 |
| 20260505124251 | 17 | 224 | 4.8 | 11.3 | 0.00 | 0.00 | 0.00 | 78 | 1017.1 |
| 20260505123746 | 17 | 214 | 6.4 | 9.7 | 0.00 | 0.00 | 0.00 | 78 | 1017.0 |
| 20260505123243 | 17 | 142 | 6.4 | 6.4 | 0.00 | 0.00 | 0.00 | 79 | 1017.2 |
| 20260505122740 | 17 | 183 | 6.4 | 6.4 | 0.00 | 0.00 | 0.00 | 81 | 1017.0 |
| 20260505122237 | 16 | 195 | 3.2 | 4.8 | 0.00 | 0.00 | 0.00 | 82 | 1017.0 |
| 20260505121734 | 16 | 201 | 6.4 | 12.9 | 0.00 | 0.00 | 0.00 | 83 | 1017.2 |
| 20260505121230 | 15 | 154 | 6.4 | 9.7 | 0.00 | 0.00 | 0.00 | 85 | 1017.0 |
| 20260505120727 | 15 | 143 | 3.2 | 4.8 | 0.00 | 0.00 | 0.00 | 85 | 1017.0 |
| 20260505120223 | 14 | 183 | 3.2 | 4.8 | 0.00 | 0.00 | 0.00 | 86 | 1017.0 |
| 20260505115721 | 14 | 182 | 3.2 | 4.8 | 0.00 | 0.00 | 0.00 | 87 | 1016.9 |
| 20260505115219 | 13 | 132 | 1.6 | 1.6 | 0.00 | 0.00 | 0.00 | 87 | 1017.0 |
| 20260505114717 | 13 | 136 | 0.0 | 3.2 | 0.00 | 0.00 | 0.00 | 88 | 1016.9 |
| 20260505114212 | 13 | 135 | 1.6 | 4.8 | 0.00 | 0.00 | 0.00 | 89 | 1016.8 |
| 20260505113709 | 13 | 121 | 1.6 | 3.2 | 0.00 | 0.00 | 0.00 | 89 | 1016.8 |
| 20260505113206 | 12 | 137 | 0.0 | 1.6 | 0.00 | 0.00 | 0.00 | 90 | 1016.7 |
| 20260505112702 | 12 | 134 | 1.6 | 1.6 | 0.00 | 0.00 | 0.00 | 90 | 1016.7 |
| 20260505112200 | 12 | 133 | 0.0 | 3.2 | 0.00 | 0.00 | 0.00 | 90 | 1016.6 |
| 20260505111659 | 11 | 132 | 0.0 | 0.0 | 0.00 | 0.00 | 0.00 | 90 | 1016.8 |
| 20260505111155 | 11 | 135 | 0.0 | 0.0 | 0.00 | 0.00 | 0.00 | 90 | 1016.6 |
| 20260505110652 | 11 | 125 | 0.0 | 0.0 | 0.00 | 0.00 | 0.00 | 90 | 1016.6 |
| 20260505110149 | 10 | 128 | 0.0 | 0.0 | 0.00 | 0.00 | 0.00 | 89 | 1016.6 |
| 20260505102125 | 11 | 119 | 0.0 | 0.0 | 0.00 | 0.00 | 0.00 | 87 | 1016.0 |
| 20260505101624 | 11 | 119 | 0.0 | 0.0 | 0.00 | 0.00 | 0.00 | 87 | 1015.8 |
| 20260505101119 | 11 | 157 | 1.6 | 3.2 | 0.00 | 0.00 | 0.00 | 87 | 1015.9 |
| 20260505100616 | 11 | 124 | 0.0 | 0.0 | 0.00 | 0.00 | 0.00 | 87 | 1015.9 |
| 20260505100113 | 11 | 130 | 0.0 | 0.0 | 0.00 | 0.00 | 0.00 | 87 | 1015.9 |
| 20260505095609 | 11 | 131 | 0.0 | 0.0 | 0.00 | 0.00 | 0.00 | 86 | 1015.8 |
| 20260505095106 | 11 | 158 | 1.6 | 1.6 | 0.00 | 0.00 | 0.00 | 86 | 1015.8 |
| 20260505094602 | 11 | 123 | 0.0 | 0.0 | 0.00 | 0.00 | 0.00 | 86 | 1015.6 |
| 20260505094058 | 11 | 125 | 0.0 | 0.0 | 0.00 | 0.00 | 0.00 | 85 | 1015.6 |
| 20260505093555 | 11 | 125 | 0.0 | 0.0 | 0.00 | 0.00 | 0.00 | 85 | 1015.8 |
| 20260505093052 | 11 | 128 | 0.0 | 0.0 | 0.00 | 0.00 | 0.00 | 84 | 1015.8 |
| 20260505092549 | 11 | 128 | 0.0 | 0.0 | 0.00 | 0.00 | 0.00 | 84 | 1015.5 |
| 20260505092048 | 11 | 124 | 0.0 | 0.0 | 0.00 | 0.00 | 0.00 | 83 | 1015.6 |
| 20260505091544 | 11 | 125 | 0.0 | 0.0 | 0.00 | 0.00 | 0.00 | 83 | 1015.6 |
| 20260505091043 | 12 | 130 | 0.0 | 0.0 | 0.00 | 0.00 | 0.00 | 82 | 1015.5 |
| 20260505090540 | 12 | 124 | 0.0 | 0.0 | 0.00 | 0.00 | 0.00 | 82 | 1015.5 |
| 20260505090038 | 12 | 124 | 0.0 | 0.0 | 0.00 | 0.00 | 0.00 | 81 | 1015.4 |
| 20260505085536 | 12 | 128 | 0.0 | 0.0 | 0.00 | 0.00 | 0.00 | 81 | 1015.5 |
| 20260505085034 | 12 | 129 | 0.0 | 0.0 | 0.00 | 0.00 | 0.00 | 81 | 1015.4 |
| 20260505084531 | 13 | 142 | 0.0 | 0.0 | 0.00 | 0.00 | 0.00 | 81 | 1015.4 |
| 20260505084029 | 13 | 137 | 1.6 | 1.6 | 0.00 | 0.00 | 0.00 | 80 | 1015.3 |
| 20260505083526 | 13 | 130 | 0.0 | 0.0 | 0.00 | 0.00 | 0.00 | 80 | 1015.3 |
| 20260505083023 | 13 | 132 | 0.0 | 3.2 | 0.00 | 0.00 | 0.00 | 80 | 1015.3 |
| 20260505082518 | 13 | 161 | 1.6 | 1.6 | 0.00 | 0.00 | 0.00 | 80 | 1015.5 |
| 20260505082015 | 13 | 138 | 0.0 | 1.6 | 0.00 | 0.00 | 0.00 | 79 | 1015.2 |
| 20260505081512 | 13 | 124 | 0.0 | 0.0 | 0.00 | 0.00 | 0.00 | 79 | 1015.2 |
| 20260505081009 | 13 | 130 | 1.6 | 1.6 | 0.00 | 0.00 | 0.00 | 79 | 1015.4 |
| 20260505080505 | 13 | 154 | 3.2 | 4.8 | 0.00 | 0.00 | 0.00 | 79 | 1015.1 |
| 20260505080001 | 13 | 134 | 1.6 | 1.6 | 0.00 | 0.00 | 0.00 | 78 | 1015.1 |
| 20260505075458 | 13 | 121 | 0.0 | 1.6 | 0.00 | 0.00 | 0.00 | 78 | 1015.2 |
| 20260505074955 | 13 | 128 | 1.6 | 1.6 | 0.00 | 0.00 | 0.00 | 78 | 1015.0 |
| 20260505074452 | 13 | 119 | 1.6 | 4.8 | 0.00 | 0.00 | 0.00 | 77 | 1015.2 |
| 20260505073949 | 14 | 131 | 0.0 | 3.2 | 0.00 | 0.00 | 0.00 | 77 | 1015.1 |
| 20260505073447 | 14 | 131 | 0.0 | 1.6 | 0.00 | 0.00 | 0.00 | 76 | 1015.1 |
| 20260505072944 | 14 | 134 | 1.6 | 3.2 | 0.00 | 0.00 | 0.00 | 76 | 1015.2 |
| 20260505072440 | 14 | 147 | 0.0 | 3.2 | 0.00 | 0.00 | 0.00 | 76 | 1015.2 |
| 20260505071936 | 15 | 157 | 1.6 | 4.8 | 0.00 | 0.00 | 0.00 | 75 | 1015.1 |
| 20260505071432 | 15 | 166 | 3.2 | 4.8 | 0.00 | 0.00 | 0.00 | 75 | 1015.4 |
| 20260505070931 | 15 | 108 | 0.0 | 3.2 | 0.00 | 0.00 | 0.00 | 75 | 1015.2 |
| 20260505070427 | 15 | 133 | 0.0 | 3.2 | 0.00 | 0.00 | 0.00 | 75 | 1015.0 |
| 20260505065922 | 15 | 129 | 1.6 | 4.8 | 0.00 | 0.00 | 0.00 | 75 | 1015.1 |
| 20260505065419 | 15 | 210 | 3.2 | 4.8 | 0.00 | 0.00 | 0.00 | 75 | 1015.1 |
| 20260505064916 | 15 | 121 | 1.6 | 4.8 | 0.00 | 0.00 | 0.00 | 74 | 1015.3 |
| 20260505064413 | 15 | 162 | 3.2 | 4.8 | 0.00 | 0.00 | 0.00 | 74 | 1015.2 |
| 20260505063912 | 15 | 133 | 1.6 | 4.8 | 0.00 | 0.00 | 0.00 | 74 | 1015.0 |
| 20260505063407 | 15 | 143 | 3.2 | 6.4 | 0.00 | 0.00 | 0.00 | 74 | 1015.1 |
| 20260505062904 | 15 | 149 | 1.6 | 3.2 | 0.00 | 0.00 | 0.00 | 73 | 1015.1 |
| 20260505062401 | 15 | 145 | 1.6 | 4.8 | 0.00 | 0.00 | 0.00 | 73 | 1015.1 |
| 20260505061858 | 15 | 119 | 3.2 | 6.4 | 0.00 | 0.00 | 0.00 | 73 | 1015.1 |
| 20260505061356 | 15 | 130 | 0.0 | 3.2 | 0.00 | 0.00 | 0.00 | 73 | 1015.2 |
| 20260505060854 | 15 | 135 | 3.2 | 4.8 | 0.00 | 0.00 | 0.00 | 72 | 1014.8 |
| 20260505060350 | 15 | 141 | 1.6 | 3.2 | 0.00 | 0.00 | 0.00 | 72 | 1015.3 |
| 20260505055846 | 15 | 153 | 3.2 | 3.2 | 0.00 | 0.00 | 0.00 | 71 | 1015.4 |
| 20260505055342 | 15 | 146 | 0.0 | 3.2 | 0.00 | 0.00 | 0.00 | 71 | 1015.4 |
| 20260505054840 | 15 | 175 | 3.2 | 3.2 | 0.00 | 0.00 | 0.00 | 71 | 1015.2 |
| 20260505054337 | 15 | 121 | 0.0 | 4.8 | 0.00 | 0.00 | 0.00 | 71 | 1015.2 |
| 20260505053835 | 15 | 128 | 0.0 | 3.2 | 0.00 | 0.00 | 0.00 | 70 | 1015.3 |
| 20260505053332 | 16 | 178 | 3.2 | 4.8 | 0.00 | 0.00 | 0.00 | 70 | 1015.5 |
| 20260505052828 | 16 | 118 | 1.6 | 6.4 | 0.00 | 0.00 | 0.00 | 70 | 1015.4 |
| 20260505052325 | 16 | 151 | 3.2 | 3.2 | 0.00 | 0.00 | 0.00 | 69 | 1015.6 |
| 20260505051823 | 16 | 133 | 1.6 | 3.2 | 0.00 | 0.00 | 0.00 | 69 | 1015.3 |
| 20260505051320 | 16 | 130 | 0.0 | 4.8 | 0.00 | 0.00 | 0.00 | 68 | 1015.5 |
| 20260505050818 | 16 | 179 | 3.2 | 9.7 | 0.00 | 0.00 | 0.00 | 68 | 1015.5 |
| 20260505050317 | 16 | 140 | 3.2 | 9.7 | 0.00 | 0.00 | 0.00 | 68 | 1015.6 |
| 20260505041746 | 17 | 135 | 1.6 | 6.4 | 0.00 | 0.00 | 0.00 | 66 | 1015.4 |
| 20260505041243 | 17 | 163 | 4.8 | 9.7 | 0.00 | 0.00 | 0.00 | 66 | 1015.4 |
| 20260505040741 | 17 | 118 | 4.8 | 9.7 | 0.00 | 0.00 | 0.00 | 66 | 1015.4 |
| 20260505040238 | 17 | 169 | 4.8 | 12.9 | 0.00 | 0.00 | 0.00 | 66 | 1015.5 |
| 20260505035735 | 17 | 141 | 6.4 | 12.9 | 0.00 | 0.00 | 0.00 | 66 | 1015.5 |
| 20260505035230 | 17 | 128 | 8.0 | 14.5 | 0.00 | 0.00 | 0.00 | 65 | 1015.6 |
| 20260505034728 | 17 | 166 | 12.9 | 16.1 | 0.00 | 0.00 | 0.00 | 65 | 1015.4 |
| 20260505034224 | 17 | 149 | 1.6 | 12.9 | 0.00 | 0.00 | 0.00 | 65 | 1015.6 |
| 20260505033721 | 17 | 220 | 3.2 | 6.4 | 0.00 | 0.00 | 0.00 | 65 | 1015.5 |
| 20260505033219 | 17 | 191 | 6.4 | 9.7 | 0.00 | 0.00 | 0.00 | 64 | 1015.6 |
| 20260505032717 | 17 | 151 | 4.8 | 12.9 | 0.00 | 0.00 | 0.00 | 64 | 1015.4 |
| 20260505032212 | 17 | 192 | 4.8 | 12.9 | 0.00 | 0.00 | 0.00 | 64 | 1015.3 |
| 20260505031710 | 17 | 133 | 4.8 | 11.3 | 0.00 | 0.00 | 0.00 | 64 | 1015.5 |
| 20260505031206 | 17 | 154 | 3.2 | 9.7 | 0.00 | 0.00 | 0.00 | 64 | 1015.5 |
| 20260505030703 | 17 | 144 | 6.4 | 12.9 | 0.00 | 0.00 | 0.00 | 64 | 1015.4 |
| 20260505030159 | 17 | 153 | 1.6 | 12.9 | 0.00 | 0.00 | 0.00 | 63 | 1015.4 |
| 20260505025655 | 18 | 203 | 4.8 | 9.7 | 0.00 | 0.00 | 0.00 | 63 | 1015.5 |
| 20260505025154 | 18 | 187 | 3.2 | 9.7 | 0.00 | 0.00 | 0.00 | 63 | 1015.4 |
| 20260505024651 | 18 | 137 | 4.8 | 9.7 | 0.00 | 0.00 | 0.00 | 63 | 1015.4 |
| 20260505024148 | 18 | 162 | 4.8 | 9.7 | 0.00 | 0.00 | 0.00 | 63 | 1015.6 |
| 20260505023646 | 18 | 125 | 1.6 | 12.9 | 0.00 | 0.00 | 0.00 | 63 | 1015.5 |
| 20260505023143 | 18 | 197 | 4.8 | 9.7 | 0.00 | 0.00 | 0.00 | 63 | 1015.4 |
| 20260505022640 | 18 | 169 | 1.6 | 4.8 | 0.00 | 0.00 | 0.00 | 62 | 1015.4 |
| 20260505022137 | 18 | 179 | 6.4 | 14.5 | 0.00 | 0.00 | 0.00 | 62 | 1015.3 |
| 20260505021634 | 18 | 156 | 8.0 | 12.9 | 0.00 | 0.00 | 0.00 | 62 | 1015.2 |
| 20260505021130 | 18 | 108 | 3.2 | 6.4 | 0.00 | 0.00 | 0.00 | 61 | 1015.2 |
| 20260505020626 | 19 | 125 | 9.7 | 12.9 | 0.00 | 0.00 | 0.00 | 61 | 1015.1 |
| 20260505020122 | 19 | 139 | 9.7 | 16.1 | 0.00 | 0.00 | 0.00 | 61 | 1015.0 |
| 20260505015619 | 19 | 146 | 6.4 | 14.5 | 0.00 | 0.00 | 0.00 | 61 | 1015.1 |
| 20260505015116 | 19 | 173 | 6.4 | 12.9 | 0.00 | 0.00 | 0.00 | 61 | 1014.9 |
| 20260505014613 | 19 | 189 | 8.0 | 16.1 | 0.00 | 0.00 | 0.00 | 61 | 1015.1 |
| 20260505014110 | 20 | 197 | 6.4 | 12.9 | 0.00 | 0.00 | 0.00 | 60 | 1015.0 |
| 20260505013607 | 20 | 210 | 3.2 | 17.7 | 0.00 | 0.00 | 0.00 | 60 | 1015.0 |
| 20260505013104 | 20 | 168 | 3.2 | 6.4 | 0.00 | 0.00 | 0.00 | 59 | 1014.6 |
| 20260505012602 | 20 | 185 | 12.9 | 16.1 | 0.00 | 0.00 | 0.00 | 59 | 1014.7 |
| 20260505012059 | 20 | 189 | 6.4 | 16.1 | 0.00 | 0.00 | 0.00 | 58 | 1014.5 |
| 20260505011554 | 20 | 154 | 4.8 | 11.3 | 0.00 | 0.00 | 0.00 | 57 | 1014.6 |
| 20260505011052 | 20 | 213 | 9.7 | 12.9 | 0.00 | 0.00 | 0.00 | 56 | 1014.4 |
| 20260505010547 | 20 | 196 | 6.4 | 14.5 | 0.00 | 0.00 | 0.00 | 55 | 1014.5 |
| 20260505010044 | 20 | 151 | 4.8 | 11.3 | 0.00 | 0.00 | 0.00 | 53 | 1014.2 |
| 20260505005540 | 20 | 144 | 3.2 | 6.4 | 0.00 | 0.00 | 0.00 | 50 | 1014.2 |
| 20260505005038 | 21 | 131 | 3.2 | 9.7 | 0.00 | 0.00 | 0.00 | 49 | 1014.0 |
| 20260505004535 | 21 | 165 | 1.6 | 6.4 | 0.00 | 0.00 | 0.00 | 47 | 1013.9 |
| 20260505004032 | 21 | 186 | 3.2 | 9.7 | 0.00 | 0.00 | 0.00 | 46 | 1013.7 |
| 20260505003529 | 21 | 141 | 3.2 | 6.4 | 0.00 | 0.00 | 0.00 | 46 | 1013.7 |
| 20260505003027 | 21 | 134 | 1.6 | 3.2 | 0.00 | 0.00 | 0.00 | 46 | 1013.6 |
| 20260505002526 | 21 | 143 | 1.6 | 4.8 | 0.00 | 0.00 | 0.00 | 45 | 1013.7 |
| 20260505002026 | 21 | 182 | 1.6 | 6.4 | 0.00 | 0.00 | 0.00 | 44 | 1013.6 |
| 20260505001523 | 21 | 129 | 3.2 | 6.4 | 0.00 | 0.00 | 0.00 | 44 | 1013.6 |
| 20260505001020 | 21 | 181 | 3.2 | 4.8 | 0.00 | 0.00 | 0.00 | 43 | 1013.5 |
| 20260505000517 | 22 | 185 | 3.2 | 4.8 | 0.00 | 0.00 | 0.00 | 43 | 1013.6 |
| 20260505000015 | 22 | 180 | 3.2 | 4.8 | 0.00 | 0.00 | 0.00 | 42 | 1013.5 |
| 20260504235511 | 22 | 133 | 3.2 | 3.2 | 0.00 | 0.00 | 0.00 | 41 | 1013.6 |
| 20260504235007 | 22 | 189 | 1.6 | 9.7 | 0.00 | 0.00 | 0.00 | 41 | 1013.5 |
| 20260504234505 | 22 | 126 | 0.0 | 3.2 | 0.00 | 0.00 | 0.00 | 40 | 1013.5 |
| 20260504234002 | 23 | 151 | 4.8 | 6.4 | 0.00 | 0.00 | 0.00 | 40 | 1013.2 |
| 20260504233457 | 23 | 195 | 4.8 | 4.8 | 0.00 | 0.00 | 0.00 | 39 | 1013.2 |
| 20260504232954 | 23 | 120 | 1.6 | 9.7 | 0.00 | 0.00 | 0.00 | 39 | 1013.1 |
| 20260504232451 | 23 | 157 | 4.8 | 4.8 | 0.00 | 0.00 | 0.00 | 39 | 1013.0 |
| 20260504231949 | 23 | 168 | 3.2 | 6.4 | 0.00 | 0.00 | 0.00 | 39 | 1013.1 |
| 20260504231445 | 23 | 144 | 1.6 | 6.4 | 0.00 | 0.00 | 0.00 | 39 | 1013.1 |
| 20260504230941 | 24 | 174 | 4.8 | 12.9 | 0.00 | 0.00 | 0.00 | 38 | 1013.2 |
| 20260504230438 | 24 | 165 | 3.2 | 6.4 | 0.00 | 0.00 | 0.00 | 38 | 1013.1 |
| 20260504225937 | 25 | 142 | 6.4 | 9.7 | 0.00 | 0.00 | 0.00 | 38 | 1012.8 |
| 20260504225433 | 25 | 154 | 3.2 | 9.7 | 0.00 | 0.00 | 0.00 | 38 | 1013.0 |
| 20260504224931 | 25 | 147 | 3.2 | 4.8 | 0.00 | 0.00 | 0.00 | 37 | 1013.2 |
| 20260504224427 | 25 | 148 | 3.2 | 14.5 | 0.00 | 0.00 | 0.00 | 37 | 1013.0 |
| 20260504223924 | 25 | 157 | 6.4 | 12.9 | 0.00 | 0.00 | 0.00 | 37 | 1013.2 |
| 20260504223420 | 25 | 153 | 6.4 | 9.7 | 0.00 | 0.00 | 0.00 | 36 | 1013.0 |
| 20260504222916 | 25 | 145 | 8.0 | 12.9 | 0.00 | 0.00 | 0.00 | 36 | 1013.0 |
| 20260504222414 | 25 | 209 | 3.2 | 6.4 | 0.00 | 0.00 | 0.00 | 36 | 1013.1 |
| 20260504221911 | 25 | 250 | 11.3 | 17.7 | 0.00 | 0.00 | 0.00 | 35 | 1012.9 |
| 20260504221408 | 25 | 169 | 9.7 | 14.5 | 0.00 | 0.00 | 0.00 | 35 | 1012.8 |
| 20260504220905 | 25 | 189 | 1.6 | 12.9 | 0.00 | 0.00 | 0.00 | 35 | 1012.9 |
| 20260504220401 | 26 | 132 | 3.2 | 11.3 | 0.00 | 0.00 | 0.00 | 36 | 1013.1 |
| 20260504215859 | 25 | 216 | 11.3 | 12.9 | 0.00 | 0.00 | 0.00 | 35 | 1013.1 |
| 20260504215355 | 25 | 136 | 9.7 | 14.5 | 0.00 | 0.00 | 0.00 | 35 | 1012.9 |
| 20260504214851 | 26 | 223 | 11.3 | 14.5 | 0.00 | 0.00 | 0.00 | 34 | 1013.2 |
| 20260504214348 | 26 | 128 | 4.8 | 9.7 | 0.00 | 0.00 | 0.00 | 35 | 1013.1 |
| 20260504213845 | 26 | 150 | 6.4 | 16.1 | 0.00 | 0.00 | 0.00 | 34 | 1012.9 |
| 20260504213341 | 26 | 157 | 4.8 | 12.9 | 0.00 | 0.00 | 0.00 | 34 | 1013.0 |
| 20260504212838 | 26 | 225 | 11.3 | 12.9 | 0.00 | 0.00 | 0.00 | 34 | 1013.0 |
| 20260504212334 | 26 | 212 | 9.7 | 16.1 | 0.00 | 0.00 | 0.00 | 34 | 1013.2 |
| 20260504211832 | 26 | 193 | 6.4 | 16.1 | 0.00 | 0.00 | 0.00 | 33 | 1013.2 |
| 20260504211328 | 26 | 205 | 16.1 | 17.7 | 0.00 | 0.00 | 0.00 | 33 | 1013.0 |
| 20260504210826 | 26 | 260 | 12.9 | 14.5 | 0.00 | 0.00 | 0.00 | 34 | 1013.0 |
| 20260504210323 | 26 | 242 | 8.0 | 14.5 | 0.00 | 0.00 | 0.00 | 33 | 1013.0 |
| 20260504205820 | 26 | 219 | 12.9 | 16.1 | 0.00 | 0.00 | 0.00 | 34 | 1013.0 |
| 20260504205317 | 26 | 223 | 3.2 | 11.3 | 0.00 | 0.00 | 0.00 | 33 | 1013.0 |
| 20260504204815 | 26 | 170 | 11.3 | 20.9 | 0.00 | 0.00 | 0.00 | 33 | 1013.1 |
| 20260504204314 | 26 | 180 | 6.4 | 16.1 | 0.00 | 0.00 | 0.00 | 33 | 1013.0 |
| 20260504203813 | 26 | 164 | 3.2 | 11.3 | 0.00 | 0.00 | 0.00 | 33 | 1013.4 |
| 20260504203309 | 26 | 226 | 11.3 | 16.1 | 0.00 | 0.00 | 0.00 | 33 | 1013.4 |
| 20260504202804 | 26 | 213 | 6.4 | 12.9 | 0.00 | 0.00 | 0.00 | 33 | 1013.3 |
| 20260504202304 | 25 | 230 | 12.9 | 17.7 | 0.00 | 0.00 | 0.00 | 33 | 1013.4 |
| 20260504201759 | 26 | 214 | 12.9 | 20.9 | 0.00 | 0.00 | 0.00 | 34 | 1013.6 |
| 20260504201256 | 26 | 167 | 8.0 | 12.9 | 0.00 | 0.00 | 0.00 | 34 | 1013.5 |
| 20260504200754 | 26 | 241 | 12.9 | 20.9 | 0.00 | 0.00 | 0.00 | 34 | 1013.7 |